sat.trackr.live / text

‹ back to catalog

STARLINK-6135

NORAD 56539 · 2023-065AN

PAYLOAD ACTIVE UNKNOWN

§ Identity

Operator
Country
US
Launch date
2023-05-14
Launch site
AFETR
Launch vehicle
Mass (kg)
RCS (m²)

Purposes: comms

External: N2YO · Heavens-Above · Gunter

§ Orbital elements

Epoch: 2026-05-25T01:34:16.144032Z

Period
94.27 min
Inclination
43.0054°
Eccentricity
0.0002558
Mean motion
15.27552580 rev/d
Perigee alt
481.4 km
Apogee alt
484.9 km
Semi-major
6,861.3 km
B*
1.2555e-4
RAAN
155.5966°
Arg perigee
292.2599°
Mean anomaly
67.7981°
Rev number
16,811

§ Raw data

STARLINK-61351 56539U 23065AN  26145.06546463  .00003191  00000+0  12555-3 0  99902 56539  43.0054 155.5966 0002558 292.2599  67.7981 15.27552580168116

JSON: /api/v1/satellites/56539 · /tle

For live sub-satellite position, see the globe view (requires WebGL).

§ Visibility from observer

Set your observer location to see the next 7 days of passes ≥ 10°. The values pass through the URL so the page stays shareable.

No JS? Fill the form by hand. The geolocation button needs JavaScript.